Regional Weather Roundup
Issued by NWS Northern Indiana

Home | Current Version | Previous Version | Text Only | Print | Product List | Glossary Off
Versions: 1 2 3 4 5 6 7 8 9 10 11 12 13 14 15 16 17 18 19 20 21 22 23 24 25 26 27 28 29 30 31 32 33 34 35 36 37 38 39 40 41 42 43 44 45 46 47 48 49 50

000
ASUS43 KIWX 232100
RWRIWX

KIWX WEATHER ROUNDUP
NATIONAL WEATHER SERVICE NORTHERN INDIANA
500 PM EDT WED APR 23 2014

NOTE: "FAIR" INDICATES FEW OR NO CLOUDS BELOW 12,000 FEET WITH NO
SIGNIFICANT WEATHER AND/OR OBSTRUCTIONS TO VISIBILITY.

* THESE STATIONS ARE NOT UNDER NWS QUALITY CONTROL. THEY ALSO MAY NOT
  REPORT WEATHER SUCH AS PRECIPITATION OR FOG.

INZ001>027-232200-
NORTHERN INDIANA

CITY           SKY/WX    TMP DP  RH WIND       PRES   REMARKS
GARY*          MOSUNNY   45  32  61 NE16      30.15F
VALPARAISO     SUNNY     50  30  46 NE9       30.11F
SOUTH BEND     SUNNY     55  35  47 N9        30.11F
ELKHART*       SUNNY     57  25  28 CALM      30.09
GOSHEN         SUNNY     57  27  31 CALM      30.08F
ANGOLA*        SUNNY     55  25  30 NE6       30.08F
FORT WAYNE     MOSUNNY   58  29  33 VRB5      30.08F

$$
INZ028>050-232200-
CENTRAL INDIANA

CITY           SKY/WX    TMP DP  RH WIND       PRES   REMARKS
LAFAYETTE      SUNNY     58  30  34 E6        30.07F
KOKOMO*        SUNNY     57  27  30 N8        30.08F
MUNCIE*        SUNNY     57  32  38 NE7       30.07S
INDIANAPOLIS   MOSUNNY   57  30  35 VRB6      30.06F

$$
MIZ043>046-050>051-056>058-064>065-071>073-077>080-232200-
SOUTHWEST LOWER MICHIGAN

CITY           SKY/WX    TMP DP  RH WIND       PRES   REMARKS
BATTLE CREEK   SUNNY     55  19  24 N8        30.10F
BENTON HARBOR  SUNNY     41  29  62 VRB6      30.13F
COLDWATER*     SUNNY     55  18  23 NE7       30.09F
HILLSDALE*     SUNNY     56  19  23 N7        30.08F
HOLLAND        MOSUNNY   47  27  45 NW9       30.13F
GRAND RAPIDS   PTSUNNY   57  20  23 NW3       30.10F
KALAMAZOO      SUNNY     56  24  29 W5        30.10F
STURGIS*       SUNNY     55  27  33 N6        30.09F
THREE RIVERS*  FAIR      57  19  22 E5        30.10F

$$
OHZ001>008-015>018-024>025-232200-
NORTHWEST OHIO

CITY           SKY/WX    TMP DP  RH WIND       PRES   REMARKS
DEFIANCE       SUNNY     59  26  28 NE10      30.08F
FINDLAY        SUNNY     56  29  35 N6        30.07F
TOLEDO EXPRESS SUNNY     56  24  29 N9        30.07F
TOLEDO METCALF SUNNY     55  29  36 MISG      30.09F
LIMA           SUNNY     55  31  39 NW9       30.07F

$$
&&



USA.gov is the U.S. government's official web portal to all federal, state and local government web resources and services.